"Time","Temp","Dewpoint","Humidity","Pressure","Direction","Speed","Gust","Precip","PrecipRate"
"00:04:57","70.7","67.5","89.9","30.01","194","0","0","0.00","0.00"
"00:09:59","70.6","67.5","90","30.01","194","0","0","0.00","0.00"
"00:14:58","70.4","67.3","90","30.01","194","0","0","0.00","0.00"
"00:19:57","70.2","67.1","90","30.01","194","0","0","0.00","0.00"
"00:24:58","70","67.3","91","30.01","194","0","0","0.00","0.00"
"00:29:59","69.9","67.2","91","30.01","194","0","0","0.00","0.00"
"00:34:57","69.9","67.2","91","30.01","194","0","0","0.00","0.00"
"00:39:58","69.7","67","91","30.01","194","0","0","0.00","0.00"
"00:44:57","69.5","66.8","91.2","30.01","194","0","0","0.00","0.00"
"00:49:59","69.3","66.9","92","30.01","194","0","0","0.00","0.00"
"00:54:59","69.2","66.8","92","30.01","194","0","0","0.00","0.00"
"00:59:56","69.2","66.8","92","30.01","194","0","0","0.00","0.00"
"01:04:57","69.1","66.7","92","30.00","194","0","0","0.00","0.00"
"01:09:59","69.2","66.8","92","30.00","194","0","0","0.00","0.00"
"01:14:57","69.2","66.8","92","30.00","194","0","0","0.00","0.00"
"01:19:57","69","66.6","92","30.00","194","0","0","0.00","0.00"
"01:24:59","68.8","66.4","92","30.00","194","0","0","0.00","0.00"
"01:29:55","68.7","66.4","92.3","30.00","194","0","0","0.00","0.00"
"01:34:57","68.5","66.4","93","29.99","194","0","0","0.00","0.00"
"01:39:58","68.5","66.4","93","29.99","194","0","0","0.00","0.00"
"01:44:59","68.6","66.5","93","29.99","194","0","0","0.00","0.00"
"01:49:56","68.5","66.4","93","29.99","194","0","0","0.00","0.00"
"01:54:58","68.4","66.3","93","29.99","194","0","0","0.00","0.00"
"01:59:59","68.3","66.2","93","29.99","194","0","0","0.00","0.00"
"02:04:57","68.1","66","93","29.98","194","0","0","0.00","0.00"
"02:09:59","68","66.2","93.9","29.98","194","0","0","0.00","0.00"
"02:14:59","68","66.2","94","29.98","194","0","0","0.00","0.00"
"02:19:56","67.9","66.1","94","29.98","194","0","0","0.00","0.00"
"02:24:57","67.8","66","94","29.98","194","0","0","0.00","0.00"
"02:29:59","67.7","65.9","94","29.98","194","0","0","0.00","0.00"
"02:34:56","67.7","65.9","94","29.98","194","0","0","0.00","0.00"
"02:39:57","67.6","65.8","94","29.98","194","0","0","0.00","0.00"
"02:44:58","67.6","65.8","94","29.98","194","0","0","0.00","0.00"
"02:49:59","67.4","65.8","94.4","29.98","194","0","0","0.00","0.00"
"02:54:56","67.5","66","95","29.98","194","0","0","0.00","0.00"
"02:59:58","67.5","66","95","29.98","194","0","0","0.00","0.00"
"03:04:56","67.6","65.8","94.1","29.97","194","0","0","0.00","0.00"
"03:09:58","67.6","65.8","94","29.97","194","0","0","0.00","0.00"
"03:14:59","67.4","65.6","94","29.97","194","0","0","0.00","0.00"
"03:19:56","67.2","65.4","94","29.97","194","0","0","0.00","0.00"
"03:24:58","67.1","65.3","94","29.97","194","0","0","0.00","0.00"
"03:29:59","67.1","65.3","94.2","29.97","194","0","0","0.00","0.00"
"03:34:57","67","65.5","95","29.97","194","0","0","0.00","0.00"
"03:39:59","66.9","65.4","95","29.97","194","0","0","0.00","0.00"
"03:44:59","66.8","65.3","95","29.97","194","0","0","0.00","0.00"
"03:49:56","66.7","65.2","95","29.97","194","0","0","0.00","0.00"
"03:54:58","66.7","65.2","95","29.97","194","0","0","0.00","0.00"
"03:59:59","66.7","65.2","95","29.97","194","0","0","0.00","0.00"
"04:04:59","66.8","65.3","95","29.97","194","0","0","0.00","0.00"
"04:09:58","66.8","65.3","95","29.97","194","0","0","0.00","0.00"
"04:14:58","66.8","65.3","95","29.97","194","0","0","0.00","0.00"
"04:19:59","66.8","65.3","95","29.96","194","0","0","0.00","0.00"
"04:24:56","66.8","65.3","95","29.96","194","0","0","0.00","0.00"
"04:29:57","66.8","65.3","95","29.96","194","0","0","0.00","0.00"
"04:34:58","66.8","65.3","95","29.96","194","0","0","0.00","0.00"
"04:39:58","66.9","65.4","95","29.96","194","0","0","0.00","0.00"
"04:44:59","67","65.5","95","29.96","194","0","0","0.00","0.00"
"04:49:56","67","65.2","94","29.96","194","0","0","0.00","0.00"
"04:54:58","66.9","65.1","94","29.96","194","0","0","0.00","0.00"
"04:59:59","66.9","65.1","94","29.96","194","0","0","0.00","0.00"
"05:04:56","66.9","65.1","94","29.96","194","0","0","0.00","0.00"
"05:09:58","66.9","64.8","93.3","29.96","194","0","0","0.00","0.00"
"05:14:59","66.9","64.8","93","29.97","194","0","0","0.00","0.00"
"05:19:56","67","64.9","93","29.97","194","0","0","0.00","0.00"
"05:24:57","67","64.9","93","29.97","194","0","0","0.00","0.00"
"05:29:58","67","64.6","92","29.97","194","0","0","0.00","0.00"
"05:34:56","67","64.6","92","29.97","194","0","0","0.00","0.00"
"05:39:57","67","64.6","92","29.97","194","0","0","0.00","0.00"
"05:44:59","67","64.5","91.6","29.97","194","0","0","0.00","0.00"
"05:49:57","67.1","64.5","91.4","29.97","194","0","0","0.00","0.00"
"05:54:59","67.2","64.8","92","29.97","194","0","0","0.00","0.00"
"05:59:58","67.2","64.7","91.7","29.97","194","0","0","0.00","0.00"
"06:04:59","67.1","64.4","91","29.97","194","0","0","0.00","0.00"
"06:09:58","67","64.3","91","29.97","194","0","0","0.00","0.00"
"06:14:56","67","64.3","91","29.97","194","0","0","0.00","0.00"
"06:19:58","66.9","64.2","90.8","29.97","204","0","0","0.00","0.00"
"06:24:59","66.9","64.2","91","29.97","204","0","0","0.00","0.00"
"06:29:56","66.9","64.2","90.9","29.97","204","0","0","0.00","0.00"
"06:34:58","67","64.2","90.7","29.97","204","0","0","0.00","0.00"
"06:39:58","67.1","64.3","90.6","29.97","204","0","0","0.00","0.00"
"06:44:56","67.2","64.2","89.9","29.98","204","0","0","0.00","0.00"
"06:49:57","67.5","64.1","89","29.98","204","0","0","0.00","0.00"
"06:54:59","67.9","64.4","88.6","29.98","207","0","0","0.00","0.00"
"06:59:57","68.1","64.4","88","29.98","207","0","0","0.00","0.00"
"07:04:58","68.3","64.6","88","29.98","207","0","0","0.00","0.00"
"07:09:56","68.5","64.6","87.2","29.98","207","0","0","0.00","0.00"
"07:14:57","68.9","64.9","87.2","29.98","207","0","0","0.00","0.00"
"07:19:58","69.2","65","86.5","29.98","210","0","0","0.00","0.00"
"07:24:56","69.7","65.1","85.4","29.98","210","0","0","0.00","0.00"
"07:29:58","70.2","65.3","84.5","29.99","212","0","0","0.00","0.00"
"07:34:59","70.6","65.3","83.5","29.99","212","0","0","0.00","0.00"
"07:39:56","71.1","65.3","82.1","29.99","228","0","0","0.00","0.00"
"07:44:57","71.5","65.6","81.9","29.99","231","0","0","0.00","0.00"
"07:49:57","71.8","65.4","80.2","29.99","232","0","0","0.00","0.00"
"07:54:58","72.2","65.7","80","29.99","303","0","1","0.00","0.00"
"07:59:58","72.5","65.7","79.3","30.00","256","0.1","2.3","0.00","0.00"
"08:04:59","72.8","65.9","79","30.00","348","0.2","2.3","0.00","0.00"
"08:09:56","73","65.9","78.6","30.00","262","0.9","3.5","0.00","0.00"
"08:14:57","73.1","66.1","78.7","30.00","256","1.4","3.5","0.00","0.00"
"08:19:58","73.3","66.2","78.6","30.00","296","1.3","4","0.00","0.00"
"08:24:58","73.6","66.3","78","30.00","306","1.5","5","0.00","0.00"
"08:29:59","73.9","66.4","77.6","30.00","336","1.2","5","0.00","0.00"
"08:34:56","74.1","66.7","77.8","30.00","303","0","1","0.00","0.00"
"08:39:56","74.4","66.6","76.8","30.00","329","1.5","5","0.00","0.00"
"08:44:57","74.6","67","77.3","30.00","294","2","6","0.00","0.00"
"08:49:57","74.8","66.9","76.5","30.00","297","1.6","5.8","0.00","0.00"
"08:54:58","75.2","67.5","77.2","30.00","297","1.2","4","0.00","0.00"
"08:59:59","75.6","67.6","76.2","30.00","288","2.1","6","0.00","0.00"
"09:04:56","75.9","67.6","75.3","30.00","315","2.6","5","0.00","0.00"
"09:09:56","76.1","67.4","74.5","30.00","298","2.8","6","0.00","0.00"
"09:14:58","76.4","67.3","73.5","30.00","308","2.4","10","0.00","0.00"
"09:19:59","76.6","67.6","73.6","30.00","331","1.9","4","0.00","0.00"
"09:24:56","77","68.3","74.6","30.00","280","1.5","4","0.00","0.00"
"09:29:56","77.4","68.1","73.1","30.01","296","2.9","7","0.00","0.00"
"09:34:56","77.6","68","72.2","30.01","335","2","7","0.00","0.00"
"09:39:57","77.8","67.7","71.3","30.01","310","2.7","7","0.00","0.00"
"09:44:58","78","68.1","71.7","30.01","313","1.8","6","0.00","0.00"
"09:49:59","78.3","67.9","70.5","30.01","317","2.1","7","0.00","0.00"
"09:54:56","78.6","68.1","70.4","30.01","326","2.9","7","0.00","0.00"
"09:59:59","78.7","68.3","70.4","30.01","339","2.2","6","0.00","0.00"
"10:04:55","79.1","68.9","70.9","30.00","332","2.5","7","0.00","0.00"
"10:09:58","79.4","69.2","70.9","30.00","309","2.4","6.9","0.00","0.00"
"10:14:58","79.7","68.8","69.4","30.00","326","3.2","9","0.00","0.00"
"10:19:58","80","68.8","68.9","30.00","324","2.6","6.9","0.00","0.00"
"10:24:58","80.2","69.2","69.3","30.00","318","2.4","6","0.00","0.00"
"10:29:58","80.4","69.2","68.6","30.00","328","3","9.2","0.00","0.00"
"10:34:58","80.5","69.2","68.4","30.00","343","3.1","7","0.00","0.00"
"10:39:58","80.7","69.6","68.9","30.00","349","1.9","5","0.00","0.00"
"10:44:59","81.2","70.6","70.1","30.00","349","1.2","3.5","0.00","0.00"
"10:49:56","81.7","70.2","68.2","30.00","346","1.3","3.5","0.00","0.00"
"10:54:56","82.1","70.4","67.9","30.00","299","1.9","5","0.00","0.00"
"10:59:56","82.2","70.3","67.3","30.00","279","2.1","5","0.00","0.00"
"11:04:57","82.4","70.4","67.3","30.00","226","1.9","4","0.00","0.00"
"11:09:59","82.8","71","67.4","30.00","297","1.7","5","0.00","0.00"
"11:14:58","83.2","70.1","64.7","30.00","319","2.4","6","0.00","0.00"
"11:19:57","83.2","70.3","65.1","30.00","296","1.9","5","0.00","0.00"
"11:24:58","83.4","71.1","66.5","30.00","344","1.2","5","0.00","0.00"
"11:29:59","84","71.6","66.5","30.00","352","1.6","6","0.00","0.00"
"11:34:58","84","70.5","64","30.00","306","2.8","7","0.00","0.00"
"11:39:57","84","70.6","64.2","30.00","328","1.8","5","0.00","0.00"
"11:44:58","84.1","71.2","65.3","30.00","213","1.6","3.5","0.00","0.00"
"11:49:58","84.4","71.4","65","30.00","290","1.6","6","0.00","0.00"
"11:54:59","84.5","70.9","63.8","30.00","342","2.4","5","0.00","0.00"
"11:59:56","84.9","71.9","65.1","30.00","334","1.7","6","0.00","0.00"
"12:04:57","85.2","71.2","63","29.99","346","0.9","5.8","0.00","0.00"
"12:09:59","85.1","71","62.7","29.99","312","1.7","5","0.00","0.00"
"12:14:59","85.1","71.2","63.3","29.99","252","2.1","7","0.00","0.00"
"12:19:59","85.3","70.8","61.9","29.99","328","2.6","6.9","0.00","0.00"
"12:24:59","85.7","71.4","62.6","29.99","320","1.3","5","0.00","0.00"
"12:29:59","85.7","70.9","61.3","29.99","309","2.5","6","0.00","0.00"
"12:34:59","85.6","70.5","60.7","29.98","316","2.9","6","0.00","0.00"
"12:39:58","85.4","70.3","60.8","29.98","338","2.2","4","0.00","0.00"
"12:44:59","85.9","71.7","62.8","29.98","320","1.2","3.5","0.00","0.00"
"12:49:55","86.3","70.7","59.9","29.98","307","2.6","6","0.00","0.00"
"12:54:56","86.3","70.4","59.2","29.98","312","3.1","6","0.00","0.00"
"12:59:57","86","70","58.9","29.98","329","2.3","7","0.00","0.00"
"13:04:57","86.3","71.8","62.1","29.98","307","1.4","3.5","0.00","0.00"
"13:09:59","86.7","70.5","58.7","29.98","312","1.8","7","0.00","0.00"
"13:14:56","86.7","70.8","59.3","29.98","254","2","6","0.00","0.00"
"13:19:57","87","71","59.2","29.97","323","1.9","4","0.00","0.00"
"13:24:57","87.2","71","58.7","29.97","303","2","7","0.00","0.00"
"13:29:58","87.4","70.7","57.8","29.97","255","1.9","5","0.00","0.00"
"13:34:57","87.5","70.4","57","29.97","242","2.3","6","0.00","0.00"
"13:39:57","87.5","71.4","59.1","29.97","279","1.3","7","0.00","0.00"
"13:44:58","87.8","70.6","56.9","29.97","335","2.3","6.9","0.00","0.00"
"13:49:55","88","71","57.4","29.97","350","1.8","5","0.00","0.00"
"13:54:57","88.3","71.3","57.5","29.97","314","1.4","4","0.00","0.00"
"13:59:56","88.3","70.5","55.8","29.97","229","1.6","4","0.00","0.00"
"14:04:58","88.4","71.1","56.8","29.96","209","1.9","5","0.00","0.00"
"14:09:56","88.7","70.6","55.4","29.96","217","1.8","4.6","0.00","0.00"
"14:14:56","88.8","71.4","56.7","29.96","190","2","4","0.00","0.00"
"14:19:56","89","70.7","54.9","29.96","268","2","6","0.00","0.00"
"14:24:57","88.8","70.3","54.5","29.96","293","1.4","3.5","0.00","0.00"
"14:29:57","88.5","68.4","51.7","29.96","320","2","7","0.00","0.00"
"14:34:58","88.5","69","52.7","29.95","327","1.9","5","0.00","0.00"
"14:39:58","88.4","68.9","52.7","29.95","321","2","6","0.00","0.00"
"14:44:58","88.3","68.7","52.4","29.95","235","2.3","4.6","0.00","0.00"
"14:49:59","88.5","69.8","54.1","29.95","218","1.6","4","0.00","0.00"
"14:54:56","88.7","70.6","55.2","29.95","264","1.2","4","0.00","0.00"
"14:59:57","88.8","70.1","54.1","29.95","335","1.9","6","0.00","0.00"
"15:04:58","88.7","70.5","55.1","29.94","267","2.1","4","0.00","0.00"
"15:09:56","88.8","69.8","53.7","29.94","249","2.7","7","0.00","0.00"
"15:14:57","89.1","70.7","54.7","29.94","243","1.5","3.5","0.00","0.00"
"15:19:59","89.4","70.6","53.9","29.94","184","2.5","6","0.00","0.00"
"15:24:59","89.5","70.4","53.6","29.94","233","2.5","7","0.00","0.00"
"15:29:57","89.2","69.8","53","29.94","219","2.3","5","0.00","0.00"
"15:34:57","89.3","70.6","54.3","29.93","193","2.8","5","0.00","0.00"
"15:39:58","89.4","70","52.9","29.93","213","2.5","5","0.00","0.00"
"15:44:59","89.5","69.4","51.7","29.93","214","1.7","4","0.00","0.00"
"15:49:59","89.5","68.1","49.5","29.92","216","1.1","3.5","0.00","0.00"
"15:54:57","89.7","68.6","50.1","29.92","235","1.4","4","0.00","0.00"
"15:59:56","90.1","70.1","51.9","29.92","225","2.3","5","0.00","0.00"
"16:04:57","90.1","68.7","49.5","29.92","269","2.3","6","0.00","0.00"
"16:09:59","90.2","69.5","50.7","29.92","210","2.5","5","0.00","0.00"
"16:14:59","90.2","68.9","49.8","29.92","265","2.5","6","0.00","0.00"
"16:19:59","89.8","68.6","49.8","29.92","247","2.6","5.8","0.00","0.00"
"16:24:55","89.7","69.2","51.2","29.92","316","2.6","6","0.00","0.00"
"16:29:55","89.7","69","50.8","29.92","347","2.7","7","0.00","0.00"
"16:34:56","89.7","68.9","50.5","29.92","334","2.9","6","0.00","0.00"
"16:39:59","89.7","68.9","50.5","29.92","243","2.2","5","0.00","0.00"
"16:44:56","89.6","68.5","50","29.92","295","2.7","6","0.00","0.00"
"16:49:57","89.5","68.1","49.5","29.92","298","2.5","6","0.00","0.00"
"16:54:57","89.2","69.4","52.3","29.92","313","1.8","5.8","0.00","0.00"
"16:59:59","89","69.6","53","29.92","332","1.6","6","0.00","0.00"
"17:04:56","89.1","69.4","52.3","29.91","318","1.2","3.5","0.00","0.00"
"17:09:58","89.3","70.2","53.4","29.91","220","1.3","4","0.00","0.00"
"17:14:58","89.7","70.5","53.4","29.91","195","2.4","5","0.00","0.00"
"17:19:59","89.7","70.2","52.8","29.90","205","2","4.6","0.00","0.00"
"17:24:59","89.6","71.2","54.8","29.90","205","1.1","3.5","0.00","0.00"
"17:29:58","89.7","71.3","54.9","29.90","220","2","5","0.00","0.00"
"17:34:58","89.7","70.9","54.2","29.90","214","2.4","5","0.00","0.00"
"17:39:58","89.3","70.4","53.9","29.90","270","2.1","3.5","0.00","0.00"
"17:44:58","89.2","71","55.1","29.90","255","2","4","0.00","0.00"
"17:49:58","89.1","70.3","54","29.90","238","2","4","0.00","0.00"
"17:54:55","89.1","69.8","53.2","29.90","212","1.3","3.5","0.00","0.00"
"17:59:57","89.1","69.6","52.8","29.90","225","1","3.5","0.00","0.00"
"18:04:59","89.2","70.1","53.4","29.90","215","1.8","4","0.00","0.00"
"18:09:58","89.2","70.3","53.7","29.90","207","1.4","3.5","0.00","0.00"
"18:14:56","89.2","69.9","53","29.90","207","1.4","4","0.00","0.00"
"18:19:58","89","68.6","51.2","29.89","230","1.2","4","0.00","0.00"
"18:24:56","88.8","68.6","51.4","29.89","275","1.9","4","0.00","0.00"
"18:29:58","88.7","69","52.4","29.89","243","1.7","4","0.00","0.00"
"18:34:56","88.3","69.2","53.3","29.89","234","1.7","3.5","0.00","0.00"
"18:39:58","88","69.3","54.1","29.89","197","2.2","4","0.00","0.00"
"18:44:56","87.7","68.6","53.3","29.90","175","1.8","4","0.00","0.00"
"18:49:58","87.4","69.4","55.2","29.90","181","1.1","4","0.00","0.00"
"18:54:56","87.1","68.9","54.8","29.90","220","1.7","4","0.00","0.00"
"18:59:57","86.8","68.9","55.3","29.90","204","1.5","4","0.00","0.00"
"19:04:58","86.6","69.3","56.5","29.90","185","1.1","3.5","0.00","0.00"
"19:09:56","86.5","69.6","57.2","29.90","186","0.4","2.3","0.00","0.00"
"19:14:57","86.2","70.1","58.7","29.90","185","1.1","2.3","0.00","0.00"
"19:19:57","86","70","59.1","29.90","185","1.2","3.5","0.00","0.00"
"19:24:59","85.7","70.3","60.3","29.90","185","1.1","3.5","0.00","0.00"
"19:29:56","85.4","69.6","59.5","29.90","187","1.2","3.5","0.00","0.00"
"19:34:57","85.1","69.9","60.5","29.90","189","0.6","2.3","0.00","0.00"
"19:39:57","85","70.5","62","29.90","189","0.6","2.3","0.00","0.00"
"19:44:58","84.7","71.4","64.4","29.90","189","0.6","2.3","0.00","0.00"
"19:49:57","84.3","71.3","65.2","29.90","189","0","0","0.00","0.00"
"19:54:58","83.8","71.6","66.9","29.90","189","0","0","0.00","0.00"
"19:59:59","83.2","71.5","68.1","29.90","189","0","0","0.00","0.00"
"20:04:56","82.5","71.5","69.3","29.90","189","0","0","0.00","0.00"
"20:09:59","81.9","70.9","69.5","29.90","189","0","0","0.00","0.00"
"20:14:59","81.4","70.7","70.2","29.90","189","0","0","0.00","0.00"
"20:19:56","81","70.7","71","29.90","189","0","0","0.00","0.00"
"20:24:57","80.6","70.7","71.9","29.90","189","0","0","0.00","0.00"
"20:29:58","80.2","70.5","72.4","29.90","189","0","0","0.00","0.00"
"20:34:55","79.9","70.7","73.5","29.90","189","0","0","0.00","0.00"
"20:39:57","79.4","70.4","74","29.90","189","0","0","0.00","0.00"
"20:44:59","79","70.4","74.8","29.90","189","0","0","0.00","0.00"
"20:49:59","78.6","70.1","75.3","29.90","189","0","0","0.00","0.00"
"20:54:59","78.2","70","76","29.90","189","0","0","0.00","0.00"
"20:59:58","77.8","69.8","76.6","29.90","189","0","0","0.00","0.00"
"21:04:56","77.4","69.7","77","29.90","189","0","0","0.00","0.00"
"21:09:58","77.1","69.8","78.2","29.90","189","0","0","0.00","0.00"
"21:14:56","76.9","69.9","79","29.90","189","0","0","0.00","0.00"
"21:19:59","76.7","69.8","79.2","29.90","189","0","0","0.00","0.00"
"21:24:57","76.4","69.8","80","29.90","189","0","0","0.00","0.00"
"21:29:59","76.1","69.7","80.8","29.91","189","0","0","0.00","0.00"
"21:34:57","75.8","69.7","81.4","29.91","189","0","0","0.00","0.00"
"21:39:59","75.6","69.7","82","29.91","189","0","0","0.00","0.00"
"21:44:57","75.4","69.5","82","29.91","189","0","0","0.00","0.00"
"21:49:59","75.2","69.7","82.9","29.91","189","0","0","0.00","0.00"
"21:54:57","75","69.6","83.3","29.91","189","0","0","0.00","0.00"
"21:59:59","74.8","69.6","84","29.92","189","0","0","0.00","0.00"
"22:04:57","74.6","69.5","84.1","29.92","189","0","0","0.00","0.00"
"22:09:59","74.5","69.7","85","29.92","189","0","0","0.00","0.00"
"22:14:56","74.4","69.2","84.1","29.92","189","0","0","0.00","0.00"
"22:19:58","74.4","69.2","83.8","29.92","189","0","0","0.00","0.00"
"22:24:56","74.6","69","82.9","29.92","198","0.1","5","0.00","0.00"
"22:29:57","74.9","68.9","81.7","29.92","198","1.1","3.5","0.00","0.00"
"22:34:58","75.1","68.9","81","29.92","198","0.2","2.3","0.00","0.00"
"22:39:56","75.2","69.2","81.5","29.92","198","0","0","0.00","0.00"
"22:44:58","75.2","69.2","81.9","29.92","198","0","2","0.00","0.00"
"22:49:56","75.1","68.7","80.6","29.92","199","1","4","0.00","0.00"
"22:54:58","75.2","68.6","80","29.92","199","0.6","2.3","0.00","0.00"
"22:59:56","75.3","68.7","80","29.92","199","0.3","1.2","0.00","0.00"
"23:04:58","75.3","68.7","80","29.92","199","0.3","2.3","0.00","0.00"
"23:09:56","75.4","68.8","80","29.92","199","0.4","2.3","0.00","0.00"
"23:14:58","75.5","68.9","80","29.92","199","0.9","3.5","0.00","0.00"
"23:19:56","75.5","68.9","80","29.91","200","0.5","2.3","0.00","0.00"
"23:24:59","75.5","68.9","80","29.91","200","0.1","2.3","0.00","0.00"
"23:29:58","75.5","68.9","80","29.91","199","0.6","2.3","0.00","0.00"
"23:34:56","75.6","69","80","29.91","193","0.9","4","0.00","0.00"
"23:39:58","75.7","69.1","80","29.91","193","1.2","3.5","0.00","0.00"
"23:44:56","75.8","69.1","79.7","29.91","198","0.9","3.5","0.00","0.00"
"23:49:57","76","69","79","29.91","171","1.3","4","0.00","0.00"
"23:54:56","76","69.2","79.4","29.91","255","1.2","3.5","0.00","0.00"
"23:59:59","76","69.4","80","29.91","288","0.7","3.5","0.00","0.00"
